Waarnemingen

Advertentie
Mijn weer
Spa/La Sauveniere, België (6490): temperatuur & dauwpunt: 17.04.2019 08:00:00 - 23.04.2019 08:00:00 (CEST)Spa/La Sauveniere, België (6490): windsnelheid & windstoten: 17.04.2019 08:00:00 - 23.04.2019 08:00:00 (CEST)Spa/La Sauveniere, België (6490): windrichting: 17.04.2019 08:00:00 - 23.04.2019 08:00:00 (CEST)Spa/La Sauveniere, België (6490): luchtdruk: 17.04.2019 08:00:00 - 23.04.2019 08:00:00 (CEST)Spa/La Sauveniere, België (6490): zicht: 17.04.2019 08:00:00 - 23.04.2019 08:00:00 (CEST)
Datum & Tijd tt [°C] td [°C] ff [km/u] ff [kn] fx [km/u] fx [kn] dd ppp [hPa] vv [km]
23.04.2019 08:00:00 11,1 0,9 18 10 - - ZO 999,1 40
23.04.2019 07:00:00 10,5 -0,1 25 14 40 21 ZO 999,9 45
23.04.2019 06:00:00 10,7 -0,1 29 16 43 23 ZO 1000,3 45
23.04.2019 05:00:00 11,2 -0,3 29 16 - - ZO 1000,6 45
23.04.2019 04:00:00 11,6 -0,1 29 16 47 25 ZO 1001,1 40
23.04.2019 03:00:00 12,0 0,1 32 18 47 25 ZO 1001,6 40
23.04.2019 02:00:00 12,4 0,4 32 18 - - ZO 1002,0 45
23.04.2019 01:00:00 13,4 0,9 22 12 40 21 OZO 1002,5 45
23.04.2019 00:00:00 14,2 0,8 22 12 40 21 OZO 1002,9 45
22.04.2019 23:00:00 15,3 -0,7 11 6 - - OZO 1003,4 45
22.04.2019 22:00:00 16,4 -1,0 14 8 22 12 O 1003,5 45
22.04.2019 21:00:00 17,0 -1,5 11 6 36 19 O 1003,6 45
22.04.2019 20:00:00 19,7 -0,2 18 10 - - OZO 1003,3 40
22.04.2019 19:00:00 20,9 0,1 22 12 36 19 OZO 1003,3 35
22.04.2019 18:00:00 21,5 -1,9 18 10 32 18 OZO 1003,7 30
22.04.2019 17:00:00 21,9 -1,0 14 8 - - - 1004,1 30
22.04.2019 16:00:00 21,4 0,7 18 10 32 18 OZO 1004,9 29
22.04.2019 15:00:00 20,4 -1,0 14 8 32 18 ZO 1006,1 35
22.04.2019 14:00:00 20,6 -1,8 22 12 - - ZZO 1006,6 35
22.04.2019 13:00:00 19,9 -0,7 22 12 43 23 OZO 1007,4 40
22.04.2019 12:00:00 19,2 -1,6 25 14 43 23 OZO 1008,4 30
22.04.2019 11:00:00 18,7 -1,5 18 10 - - ZZO 1009,2 35
22.04.2019 10:00:00 17,6 0,1 11 6 25 14 ZO 1009,9 30
22.04.2019 09:00:00 15,1 -0,2 18 10 29 16 ZO 1010,8 35
22.04.2019 08:00:00 13,1 -0,9 18 10 - - ZO 1011,3 35
22.04.2019 07:00:00 12,4 -1,6 18 10 29 16 ZO 1011,5 45
22.04.2019 06:00:00 12,9 -1,4 22 12 29 16 ZO 1011,7 40
22.04.2019 05:00:00 12,7 -1,0 18 10 - - ZO 1012,5 45
22.04.2019 04:00:00 13,0 -1,0 18 10 25 14 ZO 1013,1 45
22.04.2019 03:00:00 12,5 -1,7 18 10 22 12 ZO 1013,9 45
22.04.2019 02:00:00 13,0 -1,4 14 8 - - ZO 1014,3 45
22.04.2019 01:00:00 12,8 -1,7 11 6 14 8 ZO 1015,0 45
22.04.2019 00:00:00 13,6 -1,3 11 6 18 10 ZO 1015,3 45
21.04.2019 23:00:00 14,6 -0,9 11 6 - - OZO 1015,5 45
21.04.2019 22:00:00 16,8 0,3 14 8 22 12 O 1015,3 45
21.04.2019 21:00:00 16,9 -0,6 11 6 18 10 O 1015,4 40
21.04.2019 20:00:00 19,7 -0,1 11 6 - - O 1014,7 45
21.04.2019 19:00:00 21,5 -0,3 11 6 22 12 OZO 1014,7 35
21.04.2019 18:00:00 21,9 0,5 7 4 22 12 OZO 1015,4 35
21.04.2019 17:00:00 22,0 1,1 7 4 - - ZO 1015,9 30
21.04.2019 16:00:00 21,5 0,5 4 2 25 14 - 1016,8 30
21.04.2019 15:00:00 21,1 0,4 14 8 29 16 O 1017,5 35
21.04.2019 14:00:00 21,1 -0,2 7 4 - - - 1018,3 28
21.04.2019 13:00:00 20,3 0,2 11 6 25 14 - 1019,1 30
21.04.2019 12:00:00 20,0 0,7 11 6 29 16 OZO 1019,8 35
21.04.2019 11:00:00 18,9 0,0 14 8 - - OZO 1020,7 40
21.04.2019 10:00:00 19,0 3,1 11 6 18 10 O 1020,8 35
21.04.2019 09:00:00 16,5 2,7 11 6 22 12 ZZO 1021,5 35
21.04.2019 08:00:00 13,9 1,3 14 8 - - ZZO 1022,1 30
21.04.2019 07:00:00 12,5 0,3 18 10 25 14 ZO 1022,5 40
21.04.2019 06:00:00 12,3 -0,2 18 10 25 14 ZZO 1023,0 35
21.04.2019 05:00:00 12,5 0,1 18 10 - - ZO 1023,7 30
21.04.2019 04:00:00 13,2 0,2 18 10 25 14 ZO 1024,0 40
21.04.2019 03:00:00 12,9 0,6 18 10 22 12 ZO 1024,4 40
21.04.2019 02:00:00 12,9 0,5 14 8 - - OZO 1024,9 40
21.04.2019 01:00:00 11,4 -0,7 7 4 11 6 ZO 1025,6 35
21.04.2019 00:00:00 13,8 0,4 4 2 22 12 ONO 1025,7 35
20.04.2019 23:00:00 15,8 1,7 11 6 - - O 1025,5 40
20.04.2019 22:00:00 15,6 0,8 7 4 11 6 O 1025,7 40
20.04.2019 21:00:00 16,3 1,2 7 4 18 10 O 1025,4 40
20.04.2019 20:00:00 18,3 2,7 11 6 - - NO 1025,0 40
20.04.2019 19:00:00 20,2 2,9 18 10 29 16 ONO 1024,9 30
20.04.2019 18:00:00 20,9 2,7 18 10 29 16 ONO 1025,1 30
20.04.2019 17:00:00 21,0 2,9 22 12 - - ONO 1025,3 30
20.04.2019 16:00:00 21,7 1,6 14 8 32 18 ONO 1025,6 30
20.04.2019 15:00:00 21,7 2,3 11 6 25 14 O 1026,1 30
20.04.2019 14:00:00 21,1 0,3 7 4 - - ONO 1026,6 30
20.04.2019 13:00:00 20,4 0,6 14 8 29 16 ZO 1027,3 35
20.04.2019 12:00:00 20,2 0,5 7 4 25 14 - 1027,5 30
20.04.2019 11:00:00 19,3 -0,4 14 8 - - O 1028,0 30
20.04.2019 10:00:00 19,4 0,8 11 6 18 10 O 1028,0 35
20.04.2019 09:00:00 18,2 3,0 11 6 14 8 O 1028,0 40
20.04.2019 08:00:00 14,6 0,8 11 6 - - ZO 1028,4 40
20.04.2019 07:00:00 12,5 -1,2 14 8 22 12 ZO 1028,6 45
20.04.2019 06:00:00 12,1 -2,6 14 8 18 10 OZO 1028,6 45
20.04.2019 05:00:00 11,2 -3,3 11 6 - - OZO 1028,9 45
20.04.2019 04:00:00 13,3 -2,5 14 8 22 12 ZO 1028,4 45
20.04.2019 03:00:00 13,2 -2,4 11 6 22 12 ZO 1028,3 45
20.04.2019 02:00:00 13,7 -2,3 14 8 - - ZO 1028,6 45
20.04.2019 01:00:00 14,0 -2,2 14 8 22 12 ZO 1028,6 45
20.04.2019 00:00:00 14,7 -1,9 14 8 22 12 ZO 1028,5 45
19.04.2019 23:00:00 15,8 -1,4 14 8 - - OZO 1028,1 45
19.04.2019 22:00:00 16,6 -0,7 11 6 22 12 OZO 1027,8 50
19.04.2019 21:00:00 17,0 -0,1 14 8 22 12 OZO 1027,3 45
19.04.2019 20:00:00 19,0 0,8 11 6 - - OZO 1026,4 40
19.04.2019 19:00:00 20,5 1,2 11 6 25 14 O 1025,9 40
19.04.2019 18:00:00 21,3 2,3 11 6 29 16 O 1025,5 40
19.04.2019 17:00:00 21,2 1,1 11 6 - - ZZO 1025,6 35
19.04.2019 16:00:00 21,0 0,8 11 6 36 19 - 1025,7 35
19.04.2019 15:00:00 20,7 1,1 18 10 36 19 ZZO 1026,0 30
19.04.2019 14:00:00 20,1 0,9 18 10 - - ZO 1026,1 40
19.04.2019 13:00:00 - - - - 32 18 - - 40
19.04.2019 12:00:00 18,8 2,0 18 10 32 18 ZO 1026,4 40
19.04.2019 11:00:00 17,6 2,3 18 10 - - OZO 1026,5 35
19.04.2019 10:00:00 16,4 2,8 14 8 29 16 ZO 1026,4 45
19.04.2019 09:00:00 15,1 2,8 14 8 29 16 ZO 1026,3 35
19.04.2019 08:00:00 12,0 1,3 22 12 - - ZO 1026,8 40
19.04.2019 07:00:00 11,0 0,5 22 12 36 19 ZO 1026,5 45
19.04.2019 06:00:00 11,3 0,5 22 12 36 19 ZO 1026,1 45
19.04.2019 05:00:00 11,7 0,6 25 14 - - ZO 1025,9 45
19.04.2019 04:00:00 11,3 0,3 25 14 36 19 ZO 1025,6 45
19.04.2019 03:00:00 11,9 0,7 25 14 36 19 ZO 1025,3 45
19.04.2019 02:00:00 12,1 0,6 14 8 - - ZO 1025,2 45
19.04.2019 01:00:00 12,6 0,8 11 6 22 12 OZO 1025,0 45
19.04.2019 00:00:00 12,4 0,4 11 6 22 12 OZO 1025,0 45
18.04.2019 23:00:00 12,6 0,2 14 8 - - ZO 1024,8 45
18.04.2019 22:00:00 12,4 -1,2 14 8 18 10 ZO 1024,7 45
18.04.2019 21:00:00 13,6 -1,0 11 6 25 14 OZO 1024,0 45
18.04.2019 20:00:00 16,7 0,8 14 8 - - OZO 1023,0 40
18.04.2019 19:00:00 17,8 1,3 14 8 32 18 OZO 1022,4 40
18.04.2019 18:00:00 18,1 1,2 22 12 32 18 OZO 1022,2 35
18.04.2019 17:00:00 18,2 2,1 18 10 - - O 1022,1 35
18.04.2019 16:00:00 17,9 2,2 22 12 43 23 OZO 1022,3 35
18.04.2019 15:00:00 18,1 1,8 18 10 36 19 O 1022,3 35
18.04.2019 14:00:00 17,0 1,4 18 10 - - OZO 1022,8 35
18.04.2019 13:00:00 17,0 1,7 22 12 40 21 O 1023,0 35
18.04.2019 12:00:00 16,2 2,2 22 12 36 19 OZO 1023,4 30
18.04.2019 11:00:00 15,1 2,6 22 12 - - ZO 1023,7 30
18.04.2019 10:00:00 13,3 2,1 18 10 29 16 ZO 1023,8 30
18.04.2019 09:00:00 11,5 1,4 18 10 32 18 ZO 1023,7 35
18.04.2019 08:00:00 9,8 -0,1 22 12 - - ZO 1023,9 35
18.04.2019 07:00:00 9,2 -0,5 22 12 32 18 ZO 1023,5 35
18.04.2019 06:00:00 9,3 0,3 22 12 32 18 ZO 1023,1 35
18.04.2019 05:00:00 9,4 0,9 22 12 - - ZO 1023,4 30
18.04.2019 04:00:00 9,3 2,2 22 12 32 18 ZO 1023,2 28
18.04.2019 03:00:00 9,9 2,8 18 10 29 16 ZO 1022,5 23
18.04.2019 02:00:00 9,9 4,2 14 8 - - ZO 1022,8 24
18.04.2019 01:00:00 9,4 4,7 18 10 25 14 OZO 1023,1 16
18.04.2019 00:00:00 8,9 4,1 11 6 22 12 ZO 1023,1 14
17.04.2019 23:00:00 9,3 4,1 14 8 - - OZO 1022,9 28
17.04.2019 22:00:00 10,2 4,4 14 8 22 12 ZO 1022,5 45
17.04.2019 21:00:00 10,9 4,3 11 6 11 6 OZO 1022,1 40
17.04.2019 20:00:00 12,1 5,2 7 4 - - OZO 1021,7 35
17.04.2019 19:00:00 13,0 5,8 7 4 22 12 OZO 1021,3 26
17.04.2019 18:00:00 13,4 5,6 14 8 22 12 OZO 1021,3 19
17.04.2019 17:00:00 13,4 6,7 11 6 - - Z 1021,4 20
17.04.2019 16:00:00 12,6 6,8 14 8 25 14 ZZO 1021,7 21
17.04.2019 15:00:00 12,2 7,2 11 6 18 10 ZZO 1021,7 25
17.04.2019 14:00:00 11,1 7,1 11 6 - - ZZO 1021,9 15
17.04.2019 13:00:00 10,2 6,6 11 6 18 10 ZZW 1022,1 10
17.04.2019 12:00:00 9,2 5,4 11 6 14 8 ZZW 1022,1 -
17.04.2019 11:00:00 9,0 9,0 11 6 - - ZW 1021,7 17
17.04.2019 10:00:00 8,4 5,2 7 4 11 6 W 1021,3 3,0
17.04.2019 09:00:00 8,3 4,8 4 2 7 4 ZZW 1020,7 3,2
17.04.2019 08:00:00 8,1 5,3 4 2 - - OZO 1020,2 4,3

tt = temperatuur
td = dauwpunt
ff = windsnelheid
fx = windstoten
dd = windrichting
ppp = luchtdruk
vv = zicht

Weerstations in de omgeving